Location: Kalispell
(48.1967°N, 114.3128°W)
Time: 11:32:15
(UTC-06:00)

Amateur Radio Satellites - All Passes

Search period start: 25 July 2014 11:02
Search period end: 26 July 2014 11:02
Location: Kalispell, 48.1967°N, 114.3128°W

Satellite Date Start Highest point End Downlink Frequencies (MHz)
Time Altitude Azimuth
UKube-1 25 Jul 11:10:59 11:15:23 85° 105° (ESE) 11:19:44 145.840 MHz, 145.915 MHz
Sapphire 25 Jul 11:11:43 11:17:11 73° 54° (NE) 11:22:35 437.095 MHz 1200 baud AX-25 AFSK
PCSat 25 Jul 11:45:41 11:51:04 63° 241° (WSW) 11:56:24 145.825 MHz
HO-68 25 Jul 11:50:47 11:57:44 56° 295° (WNW) 12:04:39 435.675 MHz FM
Saudisat 1A 25 Jul 11:53:44 11:57:04 20° 329° (NNW) 12:00:25 436.775 MHz
KITSAT 1 25 Jul 12:00:12 12:06:23 23° 349° (N) 12:12:35 435.175 FM
Oscar 11 25 Jul 12:00:44 12:04:59 55° 288° (WNW) 12:09:12 145.825 FM, Beacon 2401.500 USB
FUNcube-1 25 Jul 12:10:51 12:15:02 75° 103° (ESE) 12:19:13 145.950 - 145.970 MHz USB
Oscar 19 25 Jul 12:40:17 12:43:19 16° 56° (NE) 12:46:21 437.125 CW, 437.150 USB
UKube-1 25 Jul 12:48:51 12:50:58 14° 303° (WNW) 12:53:05 145.840 MHz, 145.915 MHz
JAS-1B 25 Jul 12:51:35 12:57:36 20° 40° (NE) 13:03:49 435.800 - 435.900 CW/SSB
Sapphire 25 Jul 12:56:08 13:00:03 21° 253° (WSW) 13:03:56 437.095 MHz 1200 baud AX-25 AFSK
Oscar 16 25 Jul 13:06:29 13:10:41 26° 62° (ENE) 13:14:53 437.025 USB, Beacon 2401.1428
ITAMSAT 1 25 Jul 13:20:07 13:23:33 18° 57° (ENE) 13:27:00 435.822 SSB
RS-15 25 Jul 13:25:01 13:32:28 21° 99° (E) 13:39:49 29.354 - 29.394 USB, Beacon 29.352 USB
AO-Echo 25 Jul 13:26:41 13:30:32 21° 58° (ENE) 13:34:22 ?
AO-27 25 Jul 13:37:22 13:41:31 25° 60° (ENE) 13:45:40 436.795 MHz FM
Uribyol 2 25 Jul 13:39:34 13:43:49 26° 61° (ENE) 13:48:04 436.500 FM
Gurwin Techsat 1B 25 Jul 13:40:09 13:42:17 12° 52° (NE) 13:44:24 435.225 FM
HO-68 25 Jul 13:40:19 13:43:59 15° 317° (NW) 13:47:38 435.675 MHz FM
FUNcube-1 25 Jul 13:48:51 13:50:55 14° 301° (WNW) 13:52:58 145.950 - 145.970 MHz USB
KITSAT 1 25 Jul 13:58:20 14:04:53 26° 19° (NNE) 14:11:25 435.175 FM
SO-50 25 Jul 14:04:54 14:08:45 29° 116° (ESE) 14:12:40 436.795 FM
AO-7 25 Jul 14:07:43 14:12:03 15° 35° (NE) 14:16:24 29.400 - 29.500 MHz
Oscar 19 25 Jul 14:16:51 14:21:58 89° 255° (WSW) 14:27:08 437.125 CW, 437.150 USB
JAS-1B 25 Jul 14:37:19 14:45:57 57° 63° (ENE) 14:55:29 435.800 - 435.900 CW/SSB
Oscar 16 25 Jul 14:44:49 14:49:46 50° 260° (W) 14:54:46 437.025 USB, Beacon 2401.1428
TMSAT-1 25 Jul 14:54:49 14:59:33 34° 64° (ENE) 15:04:18 436.925 FM
ITAMSAT 1 25 Jul 14:57:12 15:02:26 81° 256° (WSW) 15:07:42 435.822 SSB
AO-Echo 25 Jul 15:03:28 15:08:45 72° 257° (WSW) 15:14:07 ?
AO-27 25 Jul 15:15:33 15:20:41 56° 259° (W) 15:25:51 436.795 MHz FM
Gurwin Techsat 1B 25 Jul 15:16:01 15:21:17 66° 71° (ENE) 15:26:34 435.225 FM
Uribyol 2 25 Jul 15:17:57 15:23:01 52° 260° (W) 15:28:06 436.500 FM
Saudisat 1A 25 Jul 15:18:02 15:19:57 12° 18° (NNE) 15:21:52 436.775 MHz
Uosat F 25 Jul 15:21:10 15:24:16 17° 56° (NE) 15:27:23 435.120 FM
RS-15 25 Jul 15:31:52 15:42:56 77° 123° (ESE) 15:53:50 29.354 - 29.394 USB, Beacon 29.352 USB
SO-50 25 Jul 15:44:48 15:49:08 45° 316° (NW) 15:53:35 436.795 FM
KITSAT 1 25 Jul 15:54:09 16:02:09 58° 46° (NE) 16:10:05 435.175 FM
AO-7 25 Jul 15:55:01 16:02:54 48° 59° (ENE) 16:10:48 29.400 - 29.500 MHz
Oscar 19 25 Jul 15:59:45 16:02:04 13° 273° (W) 16:04:24 437.125 CW, 437.150 USB
UOSAT-12 25 Jul 16:26:23 16:30:51 51° 122° (ESE) 16:35:25 437.025 FM, 437.400 FM
JAS-1B 25 Jul 16:28:15 16:36:36 46° 266° (W) 16:45:57 435.800 - 435.900 CW/SSB
TMSAT-1 25 Jul 16:34:29 16:39:25 39° 263° (W) 16:44:23 436.925 FM
ITAMSAT 1 25 Jul 16:40:50 16:42:46 12° 274° (W) 16:44:43 435.822 SSB
AO-Echo 25 Jul 16:47:10 16:48:27 11° 276° (W) 16:49:45 ?
Saudisat 1A 25 Jul 16:56:42 17:00:49 36° 41° (NE) 17:04:53 436.775 MHz
Uosat F 25 Jul 16:57:21 17:02:25 85° 255° (WSW) 17:07:30 435.120 FM
Gurwin Techsat 1B 25 Jul 16:57:56 17:01:45 20° 270° (W) 17:05:34 435.225 FM
JAS-2 25 Jul 17:12:10 17:17:53 24° 55° (NE) 17:23:20 435.800 - 435.900 CW/SSB, 435.910 FM
SO-50 25 Jul 17:28:15 17:30:51 15° 339° (NNW) 17:33:29 436.795 FM
OPAL 25 Jul 17:32:01 17:36:54 48° 102° (ESE) 17:41:49 ?
RS-15 25 Jul 17:45:47 17:56:13 46° 330° (NNW) 18:06:40 29.354 - 29.394 USB, Beacon 29.352 USB
AO-7 25 Jul 17:47:42 17:55:42 48° 260° (W) 18:03:46 29.400 - 29.500 MHz
KITSAT 1 25 Jul 17:49:54 17:57:22 42° 248° (WSW) 18:04:46 435.175 FM
UOSAT-12 25 Jul 18:07:04 18:11:14 31° 322° (NW) 18:15:28 437.025 FM, 437.400 FM
Hamsat 25 Jul 18:35:38 18:39:47 73° 75° (ENE) 18:43:59 145.90 MHz
Saudisat 1A 25 Jul 18:36:21 18:40:26 37° 241° (WSW) 18:44:29 436.775 MHz
Uosat F 25 Jul 18:40:00 18:41:59 12° 273° (W) 18:43:58 435.120 FM
JAS-2 25 Jul 18:54:13 19:02:05 86° 74° (ENE) 19:09:29 435.800 - 435.900 CW/SSB, 435.910 FM
HO-68 25 Jul 18:55:04 18:56:25 11° 37° (NE) 18:57:46 435.675 MHz FM
OPAL 25 Jul 19:11:22 19:15:35 28° 300° (WNW) 19:19:50 ?
SO-50 25 Jul 19:12:24 19:13:26 11° 4° (N) 19:14:29 436.795 FM
STRAND 1 25 Jul 19:49:16 19:53:50 32° 95° (E) 19:58:21 ?
UOSAT-12 25 Jul 19:50:44 19:52:51 13° 346° (NNW) 19:54:59 437.025 FM, 437.400 FM
SO-67 25 Jul 19:58:18 20:01:46 83° 256° (WSW) 20:05:16 435.3500 MHz FM
RS-15 25 Jul 20:02:20 20:11:58 33° 4° (N) 20:21:42 29.354 - 29.394 USB, Beacon 29.352 USB
Hamsat 25 Jul 20:14:35 20:16:17 12° 273° (W) 20:18:00 145.90 MHz
HO-68 25 Jul 20:35:42 20:42:13 39° 59° (ENE) 20:48:45 435.675 MHz FM
UKube-1 25 Jul 20:35:53 20:38:33 16° 59° (ENE) 20:41:12 145.840 MHz, 145.915 MHz
JAS-2 25 Jul 20:41:53 20:47:48 23° 272° (W) 20:53:33 435.800 - 435.900 CW/SSB, 435.910 FM
SO-50 25 Jul 20:52:22 20:55:50 20° 29° (NNE) 20:59:20 436.795 FM
Oscar 11 25 Jul 21:24:11 21:27:30 22° 63° (ENE) 21:30:49 145.825 FM, Beacon 2401.500 USB
STRAND 1 25 Jul 21:28:22 21:33:07 39° 294° (WNW) 21:37:49 ?
UOSAT-12 25 Jul 21:33:18 21:35:05 12° 11° (N) 21:36:52 437.025 FM, 437.400 FM
FUNcube-1 25 Jul 21:37:22 21:39:12 13° 58° (ENE) 21:41:02 145.950 - 145.970 MHz USB
UKube-1 25 Jul 22:09:53 22:14:15 70° 257° (WSW) 22:18:38 145.840 MHz, 145.915 MHz
RS-15 25 Jul 22:16:38 22:27:21 54° 36° (NE) 22:38:18 29.354 - 29.394 USB, Beacon 29.352 USB
HO-68 25 Jul 22:22:50 22:29:47 51° 260° (W) 22:36:46 435.675 MHz FM
SO-50 25 Jul 22:32:25 22:37:09 76° 50° (NE) 22:41:58 436.795 FM
MaSat-1 25 Jul 22:58:08 23:02:05 49° 113° (ESE) 23:06:41 437.345 MHz
Oscar 11 25 Jul 22:59:19 23:03:26 44° 261° (W) 23:07:35 145.825 FM, Beacon 2401.500 USB
FUNcube-1 25 Jul 23:10:39 23:15:01 87° 255° (WSW) 23:19:18 145.950 - 145.970 MHz USB
UOSAT-12 25 Jul 23:12:50 23:16:51 26° 34° (NE) 23:20:51 437.025 FM, 437.400 FM
SO-50 26 Jul 00:14:03 00:17:13 18° 248° (WSW) 00:20:25 436.795 FM
Lituanica SAT-1 26 Jul 00:16:59 00:18:19 15° 143° (SE) 00:19:39 437.275 MHz beacon
RS-15 26 Jul 00:29:19 00:40:04 62° 242° (WSW) 00:51:11 29.354 - 29.394 USB, Beacon 29.352 USB
AO-40 26 Jul 00:31:00 04:05:13 27° 190° (S) 08:43:02 Beacon 2401.320
MaSat-1 26 Jul 00:36:02 00:39:46 27° 316° (NW) 00:43:55 437.345 MHz
UOSAT-12 26 Jul 00:52:43 00:57:27 69° 235° (SW) 01:02:06 437.025 FM, 437.400 FM
Lituanica SAT-1 26 Jul 01:48:32 01:50:34 62° 341° (NNW) 01:52:36 437.275 MHz beacon
Sapphire 26 Jul 01:57:43 02:02:23 31° 111° (ESE) 02:07:05 437.095 MHz 1200 baud AX-25 AFSK
JAS-1B 26 Jul 02:21:44 02:26:42 15° 76° (ENE) 02:31:22 435.800 - 435.900 CW/SSB
Oscar 19 26 Jul 02:25:16 02:29:30 25° 93° (E) 02:33:43 437.125 CW, 437.150 USB
ISS 26 Jul 02:28:17 02:31:33 52° 150° (SSE) 02:34:51 145.800 FM
PCSat 26 Jul 02:30:40 02:35:58 58° 118° (ESE) 02:41:18 145.825 MHz
UOSAT-12 26 Jul 02:36:32 02:36:42 10° 254° (WSW) 02:36:53 437.025 FM, 437.400 FM
RS-15 26 Jul 02:44:39 02:50:00 15° 265° (W) 02:55:27 29.354 - 29.394 USB, Beacon 29.352 USB
Oscar 16 26 Jul 02:52:38 02:57:34 44° 98° (E) 03:02:29 437.025 USB, Beacon 2401.1428
ITAMSAT 1 26 Jul 03:06:54 03:11:20 28° 94° (E) 03:15:42 435.822 SSB
AO-Echo 26 Jul 03:07:44 03:12:14 29° 94° (E) 03:16:34 ?
OPAL 26 Jul 03:13:39 03:17:18 21° 57° (ENE) 03:20:58 ?
Lituanica SAT-1 26 Jul 03:21:24 03:23:14 27° 0° (N) 03:25:04 437.275 MHz beacon
AO-27 26 Jul 03:24:57 03:29:51 40° 98° (E) 03:34:41 436.795 MHz FM
Uribyol 2 26 Jul 03:26:55 03:31:51 42° 98° (E) 03:36:43 436.500 FM
Gurwin Techsat 1B 26 Jul 03:29:23 03:33:15 20° 90° (E) 03:37:06 435.225 FM
Sapphire 26 Jul 03:40:20 03:45:36 51° 311° (NW) 03:50:54 437.095 MHz 1200 baud AX-25 AFSK
Oscar 19 26 Jul 04:04:07 04:09:06 50° 291° (WNW) 04:14:05 437.125 CW, 437.150 USB
ISS 26 Jul 04:05:01 04:08:19 51° 349° (N) 04:11:38 145.800 FM
JAS-1B 26 Jul 04:09:46 04:19:25 63° 99° (E) 04:27:49 435.800 - 435.900 CW/SSB
PCSat 26 Jul 04:14:56 04:19:44 31° 319° (NW) 04:24:33 145.825 MHz
Oscar 16 26 Jul 04:32:20 04:36:45 30° 297° (WNW) 04:41:11 437.025 USB, Beacon 2401.1428
TMSAT-1 26 Jul 04:46:04 04:51:22 65° 102° (ESE) 04:56:36 436.925 FM
ITAMSAT 1 26 Jul 04:46:05 04:51:01 46° 293° (WNW) 04:55:56 435.822 SSB
AO-Echo 26 Jul 04:46:17 04:51:08 42° 293° (WNW) 04:55:49 ?
OPAL 26 Jul 04:50:52 04:55:46 64° 255° (WSW) 05:00:42 ?
Lituanica SAT-1 26 Jul 04:53:53 04:55:54 60° 19° (NNE) 04:57:55 437.275 MHz beacon
Uosat F 26 Jul 05:02:07 05:06:03 23° 92° (E) 05:09:58 435.120 FM
AO-27 26 Jul 05:04:40 05:09:17 33° 296° (WNW) 05:13:51 436.795 MHz FM
Uribyol 2 26 Jul 05:06:42 05:11:11 31° 297° (WNW) 05:15:38 436.500 FM
Gurwin Techsat 1B 26 Jul 05:08:26 05:13:42 65° 289° (WNW) 05:18:57 435.225 FM
Sapphire 26 Jul 05:27:00 05:30:19 16° 334° (NNW) 05:33:39 437.095 MHz 1200 baud AX-25 AFSK
STRAND 1 26 Jul 05:33:33 05:35:26 12° 52° (NE) 05:37:20 ?
MaSat-1 26 Jul 05:36:46 05:38:55 12° 29° (NNE) 05:41:03 437.345 MHz
ISS 26 Jul 05:42:05 05:45:23 49° 9° (N) 05:48:41 145.800 FM
AO-7 26 Jul 05:44:36 05:52:40 50° 101° (E) 06:00:38 29.400 - 29.500 MHz
JAS-1B 26 Jul 06:00:34 06:09:28 42° 302° (WNW) 06:17:28 435.800 - 435.900 CW/SSB
PCSat 26 Jul 06:02:46 06:04:58 12° 344° (NNW) 06:07:09 145.825 MHz
Hamsat 26 Jul 06:20:24 06:21:13 10° 86° (E) 06:22:02 145.90 MHz
Lituanica SAT-1 26 Jul 06:26:48 06:28:08 15° 217° (SW) 06:29:26 437.275 MHz beacon
TMSAT-1 26 Jul 06:26:51 06:30:50 22° 301° (WNW) 06:34:49 436.925 FM
KITSAT 1 26 Jul 06:29:02 06:34:37 21° 102° (ESE) 06:40:12 435.175 FM
Uosat F 26 Jul 06:40:16 06:45:10 53° 291° (WNW) 06:50:02 435.120 FM
Gurwin Techsat 1B 26 Jul 06:50:40 06:52:41 12° 308° (NW) 06:54:43 435.225 FM
STRAND 1 26 Jul 07:08:36 07:13:41 66° 71° (ENE) 07:18:49 ?
MaSat-1 26 Jul 07:12:42 07:17:43 40° 50° (NE) 07:22:39 437.345 MHz
Sapphire 26 Jul 07:15:54 07:16:13 10° 1° (N) 07:16:32 437.095 MHz 1200 baud AX-25 AFSK
ISS 26 Jul 07:18:52 07:22:12 59° 209° (SSW) 07:25:31 145.800 FM
AO-7 26 Jul 07:37:36 07:45:27 47° 302° (WNW) 07:53:14 29.400 - 29.500 MHz
JAS-2 26 Jul 07:46:18 07:52:29 55° 99° (E) 07:57:56 435.800 - 435.900 CW/SSB, 435.910 FM
PCSat 26 Jul 07:49:29 07:51:00 11° 11° (N) 07:52:32 145.825 MHz
JAS-1B 26 Jul 07:52:39 07:57:18 15° 326° (NNW) 08:01:48 435.800 - 435.900 CW/SSB
Hamsat 26 Jul 07:53:30 07:57:49 88° 284° (WNW) 08:02:08 145.90 MHz
KITSAT 1 26 Jul 08:20:45 08:28:52 83° 123° (ESE) 08:37:00 435.175 FM
Saudisat 1A 26 Jul 08:46:35 08:50:04 23° 115° (ESE) 08:53:34 436.775 MHz
STRAND 1 26 Jul 08:49:45 08:53:22 19° 270° (W) 08:56:59 ?
MaSat-1 26 Jul 08:50:11 08:55:07 39° 250° (WSW) 08:59:52 437.345 MHz
SO-67 26 Jul 08:51:42 08:55:11 72° 102° (ESE) 08:58:39 435.3500 MHz FM
ISS 26 Jul 08:57:08 08:58:21 12° 226° (SW) 08:59:34 145.800 FM
Sapphire 26 Jul 08:58:32 09:02:04 17° 27° (NNE) 09:05:36 437.095 MHz 1200 baud AX-25 AFSK
Hamsat 26 Jul 09:31:31 09:33:07 12° 302° (WNW) 09:34:44 145.90 MHz
JAS-2 26 Jul 09:31:53 09:37:11 29° 302° (WNW) 09:41:59 435.800 - 435.900 CW/SSB, 435.910 FM
PCSat 26 Jul 09:32:02 09:36:29 25° 36° (NE) 09:40:55 145.825 MHz
AO-7 26 Jul 09:32:03 09:36:14 15° 325° (NW) 09:40:25 29.400 - 29.500 MHz
HO-68 26 Jul 09:46:43 09:52:37 27° 92° (E) 09:58:28 435.675 MHz FM
UKube-1 26 Jul 09:55:50 09:58:28 16° 90° (E) 10:01:04 145.840 MHz, 145.915 MHz
KITSAT 1 26 Jul 10:17:50 10:25:10 36° 328° (NNW) 10:32:30 435.175 FM
Saudisat 1A 26 Jul 10:25:01 10:29:21 54° 314° (NW) 10:33:44 436.775 MHz
SO-67 26 Jul 10:27:10 10:27:44 10° 300° (WNW) 10:28:17 435.3500 MHz FM
Sapphire 26 Jul 10:41:19 10:46:41 57° 50° (NE) 10:52:01 437.095 MHz 1200 baud AX-25 AFSK
Oscar 11 26 Jul 10:43:30 10:47:07 25° 94° (E) 10:50:43 145.825 FM, Beacon 2401.500 USB
FUNcube-1 26 Jul 10:57:44 10:59:49 13° 89° (E) 11:01:53 145.950 - 145.970 MHz USB
